******** Week 149 almanac for PRN-1 ******** ID: 1 Health: 0 Eccentricity: 0.01140356064 Time of Applicability(s): 589824 Orbital Inclination(rad): 0.9867894677 Rate of Right Ascen(r/s): -7.703178011e-09 SQRT(A) (m 1/2): 5153.626465 Right Ascen at Week(rad): -1.914063478 Argument of Perigee(rad): 0.8814644596 Mean Anom(rad): -1.017211273 Af0(s): 0.0003376460937 Af1(s/s): -1.091394e-11 week: 149 ******** Week 149 almanac for PRN-2 ******** ID: 2 Health: 0 Eccentricity: 0.02065420151 Time of Applicability(s): 589824 Orbital Inclination(rad): 0.9651519496 Rate of Right Ascen(r/s): -7.806039438e-09 SQRT(A) (m 1/2): 5153.649414 Right Ascen at Week(rad): -2.003431715 Argument of Perigee(rad): -1.440383992 Mean Anom(rad): -0.8749761253 Af0(s): -0.0005147595581 Af1(s/s): 0 week: 149 ******** Week 149 almanac for PRN-3 ******** ID: 3 Health: 0 Eccentricity: 0.003892421722 Time of Applicability(s): 589824 Orbital Inclination(rad): 0.9724683189 Rate of Right Ascen(r/s): -8.171768958e-09 SQRT(A) (m 1/2): 5153.620605 Right Ascen at Week(rad): -0.8785998554 Argument of Perigee(rad): 0.9564755959 Mean Anom(rad): -2.170076857 Af0(s): -0.0001017460327 Af1(s/s): -1.818989e-11 week: 149 ******** Week 149 almanac for PRN-4 ******** ID: 4 Health: 0 Eccentricity: 0.001704216003 Time of Applicability(s): 589824 Orbital Inclination(rad): 0.9615806506 Rate of Right Ascen(r/s): -7.806039438e-09 SQRT(A) (m 1/2): 5153.606445 Right Ascen at Week(rad): 0.2025367715 Argument of Perigee(rad): -3.054143391 Mean Anom(rad): 0.7576872652 Af0(s): -0.0001492275146 Af1(s/s): 3.637979e-12 week: 149 ******** Week 149 almanac for PRN-5 ******** ID: 5 Health: 0 Eccentricity: 0.005867958069 Time of Applicability(s): 589824 Orbital Inclination(rad): 0.9594474585 Rate of Right Ascen(r/s): -8.308917528e-09 SQRT(A) (m 1/2): 5153.609375 Right Ascen at Week(rad): -0.9190683358 Argument of Perigee(rad): 1.008717454 Mean Anom(rad): 1.636608448 Af0(s): -5.727924805e-05 Af1(s/s): 0 week: 149 ******** Week 149 almanac for PRN-6 ******** ID: 6 Health: 0 Eccentricity: 0.002697467804 Time of Applicability(s): 589824 Orbital Inclination(rad): 0.9861782722 Rate of Right Ascen(r/s): -7.668890868e-09 SQRT(A) (m 1/2): 5153.629883 Right Ascen at Week(rad): -1.922335589 Argument of Perigee(rad): -0.9523571421 Mean Anom(rad): -0.6952071341 Af0(s): 0.0001635473267 Af1(s/s): 1.091394e-11 week: 149 ******** Week 149 almanac for PRN-7 ******** ID: 7 Health: 0 Eccentricity: 0.0155544281 Time of Applicability(s): 589824 Orbital Inclination(rad): 0.9508128245 Rate of Right Ascen(r/s): -7.966046103e-09 SQRT(A) (m 1/2): 5153.640625 Right Ascen at Week(rad): 1.221197761 Argument of Perigee(rad): -2.290128455 Mean Anom(rad): -1.688423367 Af0(s): 0.0002464515015 Af1(s/s): 3.637979e-12 week: 149 ******** Week 149 almanac for PRN-8 ******** ID: 8 Health: 0 Eccentricity: 0.007318019867 Time of Applicability(s): 589824 Orbital Inclination(rad): 0.9649841704 Rate of Right Ascen(r/s): -7.840326581e-09 SQRT(A) (m 1/2): 5153.675293 Right Ascen at Week(rad): -2.993605454 Argument of Perigee(rad): 0.1095197119 Mean Anom(rad): 1.239658336 Af0(s): -4.522045898e-05 Af1(s/s): 0 week: 149 ******** Week 149 almanac for PRN-9 ******** ID: 9 Health: 0 Eccentricity: 0.002240657806 Time of Applicability(s): 589824 Orbital Inclination(rad): 0.9545758711 Rate of Right Ascen(r/s): -7.897471818e-09 SQRT(A) (m 1/2): 5153.571777 Right Ascen at Week(rad): 0.1495694935 Argument of Perigee(rad): 1.871031497 Mean Anom(rad): 1.611764775 Af0(s): -0.0002796131714 Af1(s/s): 0 week: 149 ******** Week 149 almanac for PRN-10 ******** ID: 10 Health: 0 Eccentricity: 0.007514953613 Time of Applicability(s): 589824 Orbital Inclination(rad): 0.9723005398 Rate of Right Ascen(r/s): -8.160339911e-09 SQRT(A) (m 1/2): 5153.623047 Right Ascen at Week(rad): -0.8813876857 Argument of Perigee(rad): -2.511384961 Mean Anom(rad): -3.053119489 Af0(s): -0.0002570029419 Af1(s/s): -1.091394e-11 week: 149 ******** Week 149 almanac for PRN-11 ******** ID: 11 Health: 255 Eccentricity: 0.0002679824829 Time of Applicability(s): 589824 Orbital Inclination(rad): 0.9618802562 Rate of Right Ascen(r/s): -7.943188008e-09 SQRT(A) (m 1/2): 5153.724609 Right Ascen at Week(rad): -1.870389591 Argument of Perigee(rad): 2.863729787 Mean Anom(rad): 1.10473394 Af0(s): -6.632333984e-05 Af1(s/s): 1.091394e-11 week: 149 ******** Week 149 almanac for PRN-12 ******** ID: 12 Health: 0 Eccentricity: 0.008695602417 Time of Applicability(s): 589824 Orbital Inclination(rad): 0.9700714739 Rate of Right Ascen(r/s): -8.137481816e-09 SQRT(A) (m 1/2): 5153.540039 Right Ascen at Week(rad): 2.334330771 Argument of Perigee(rad): 1.247540211 Mean Anom(rad): -2.33769684 Af0(s): -0.0001371687256 Af1(s/s): -7.275958e-12 week: 149 ******** Week 149 almanac for PRN-13 ******** ID: 13 Health: 0 Eccentricity: 0.005809783936 Time of Applicability(s): 589824 Orbital Inclination(rad): 0.9690288464 Rate of Right Ascen(r/s): -7.714607058e-09 SQRT(A) (m 1/2): 5153.632324 Right Ascen at Week(rad): 0.3024125529 Argument of Perigee(rad): 0.955681641 Mean Anom(rad): 0.679536262 Af0(s): 0.0002087677856 Af1(s/s): 7.275958e-12 week: 149 ******** Week 149 almanac for PRN-14 ******** ID: 14 Health: 0 Eccentricity: 0.001445770264 Time of Applicability(s): 589824 Orbital Inclination(rad): 0.9534673303 Rate of Right Ascen(r/s): -8.308917528e-09 SQRT(A) (m 1/2): 5153.586426 Right Ascen at Week(rad): 2.302960939 Argument of Perigee(rad): 3.022649972 Mean Anom(rad): -2.277712049 Af0(s): -6.783068848e-05 Af1(s/s): -3.637979e-12 week: 149 ******** Week 149 almanac for PRN-15 ******** ID: 15 Health: 0 Eccentricity: 0.01394176483 Time of Applicability(s): 589824 Orbital Inclination(rad): 0.9304156737 Rate of Right Ascen(r/s): -8.206056101e-09 SQRT(A) (m 1/2): 5153.686523 Right Ascen at Week(rad): 0.04345779558 Argument of Perigee(rad): 1.075733614 Mean Anom(rad): 0.2482120232 Af0(s): -6.556966553e-05 Af1(s/s): 3.637979e-12 week: 149 ******** Week 149 almanac for PRN-16 ******** ID: 16 Health: 0 Eccentricity: 0.01277208328 Time of Applicability(s): 589824 Orbital Inclination(rad): 0.970023537 Rate of Right Ascen(r/s): -8.126052768e-09 SQRT(A) (m 1/2): 5153.547852 Right Ascen at Week(rad): 2.35294789 Argument of Perigee(rad): 0.7091268113 Mean Anom(rad): 2.090749153 Af0(s): -0.0003723151123 Af1(s/s): -3.637979e-12 week: 149 ******** Week 149 almanac for PRN-17 ******** ID: 17 Health: 0 Eccentricity: 0.01358509064 Time of Applicability(s): 589824 Orbital Inclination(rad): 0.9801262386 Rate of Right Ascen(r/s): -7.623174678e-09 SQRT(A) (m 1/2): 5153.719238 Right Ascen at Week(rad): -2.911694025 Argument of Perigee(rad): -1.497522529 Mean Anom(rad): 1.151399763 Af0(s): 0.0004559729614 Af1(s/s): 3.637979e-12 week: 149 ******** Week 149 almanac for PRN-18 ******** ID: 18 Health: 0 Eccentricity: 0.002100944519 Time of Applicability(s): 589824 Orbital Inclination(rad): 0.9705808035 Rate of Right Ascen(r/s): -7.874613723e-09 SQRT(A) (m 1/2): 5153.573242 Right Ascen at Week(rad): -1.906310059 Argument of Perigee(rad): 3.104947517 Mean Anom(rad): -0.8130090689 Af0(s): 0.0001869112305 Af1(s/s): -7.275958e-12 week: 149 ******** Week 149 almanac for PRN-19 ******** ID: 19 Health: 0 Eccentricity: 0.008984565735 Time of Applicability(s): 589824 Orbital Inclination(rad): 0.9788738871 Rate of Right Ascen(r/s): -7.634603726e-09 SQRT(A) (m 1/2): 5153.644043 Right Ascen at Week(rad): -2.866841566 Argument of Perigee(rad): 2.009042954 Mean Anom(rad): -2.717597893 Af0(s): 9.571663818e-05 Af1(s/s): 3.637979e-12 week: 149 ******** Week 149 almanac for PRN-20 ******** ID: 20 Health: 0 Eccentricity: 0.005145072937 Time of Applicability(s): 589824 Orbital Inclination(rad): 0.9416149319 Rate of Right Ascen(r/s): -8.491782288e-09 SQRT(A) (m 1/2): 5153.6875 Right Ascen at Week(rad): -1.033212461 Argument of Perigee(rad): 3.136595608 Mean Anom(rad): -0.00749126409 Af0(s): 0.0004084914795 Af1(s/s): 0 week: 149 ******** Week 149 almanac for PRN-21 ******** ID: 21 Health: 0 Eccentricity: 0.02459573746 Time of Applicability(s): 589824 Orbital Inclination(rad): 0.9593995216 Rate of Right Ascen(r/s): -7.817468486e-09 SQRT(A) (m 1/2): 5153.53418 Right Ascen at Week(rad): -2.005092279 Argument of Perigee(rad): -1.001580848 Mean Anom(rad): 1.3419025 Af0(s): 0.0001251099365 Af1(s/s): 0 week: 149 ******** Week 149 almanac for PRN-22 ******** ID: 22 Health: 0 Eccentricity: 0.01292610168 Time of Applicability(s): 589824 Orbital Inclination(rad): 0.9617304534 Rate of Right Ascen(r/s): -7.783181343e-09 SQRT(A) (m 1/2): 5153.61377 Right Ascen at Week(rad): 0.2508320744 Argument of Perigee(rad): -1.871626588 Mean Anom(rad): 1.031297606 Af0(s): 0.0001710840698 Af1(s/s): 7.275958e-12 week: 149 ******** Week 149 almanac for PRN-23 ******** ID: 23 Health: 0 Eccentricity: 0.001982688904 Time of Applicability(s): 589824 Orbital Inclination(rad): 0.9673390706 Rate of Right Ascen(r/s): -8.217485148e-09 SQRT(A) (m 1/2): 5153.644531 Right Ascen at Week(rad): -0.9062710562 Argument of Perigee(rad): 2.969536636 Mean Anom(rad): -1.739598255 Af0(s): 0 Af1(s/s): -3.637979e-12 week: 149 ******** Week 149 almanac for PRN-24 ******** ID: 24 Health: 0 Eccentricity: 0.01234960556 Time of Applicability(s): 589824 Orbital Inclination(rad): 0.9343644758 Rate of Right Ascen(r/s): -8.103194673e-09 SQRT(A) (m 1/2): 5153.64209 Right Ascen at Week(rad): 1.138355683 Argument of Perigee(rad): 0.8079183949 Mean Anom(rad): -0.7217177376 Af0(s): 0.0002163045288 Af1(s/s): -3.637979e-12 week: 149 ******** Week 149 almanac for PRN-25 ******** ID: 25 Health: 0 Eccentricity: 0.01051855087 Time of Applicability(s): 589824 Orbital Inclination(rad): 0.9574640693 Rate of Right Ascen(r/s): -8.286059433e-09 SQRT(A) (m 1/2): 5153.647461 Right Ascen at Week(rad): 2.257536232 Argument of Perigee(rad): 0.9817334734 Mean Anom(rad): -2.595568898 Af0(s): 0.0002276096436 Af1(s/s): 3.637979e-12 week: 149 ******** Week 149 almanac for PRN-26 ******** ID: 26 Health: 0 Eccentricity: 0.006893634796 Time of Applicability(s): 589824 Orbital Inclination(rad): 0.9382953016 Rate of Right Ascen(r/s): -8.468924193e-09 SQRT(A) (m 1/2): 5153.636719 Right Ascen at Week(rad): 2.210442722 Argument of Perigee(rad): 0.3708297439 Mean Anom(rad): 3.034857777 Af0(s): 0.0001462128174 Af1(s/s): 3.637979e-12 week: 149 ******** Week 149 almanac for PRN-27 ******** ID: 27 Health: 0 Eccentricity: 0.01026773453 Time of Applicability(s): 589824 Orbital Inclination(rad): 0.9736907098 Rate of Right Ascen(r/s): -7.748894201e-09 SQRT(A) (m 1/2): 5153.606445 Right Ascen at Week(rad): -2.974155431 Argument of Perigee(rad): 0.6406489502 Mean Anom(rad): 1.202050715 Af0(s): 9.948500976e-05 Af1(s/s): 1.455192e-11 week: 149 ******** Week 149 almanac for PRN-29 ******** ID: 29 Health: 0 Eccentricity: 0.001850128174 Time of Applicability(s): 589824 Orbital Inclination(rad): 0.9821335963 Rate of Right Ascen(r/s): -7.611745631e-09 SQRT(A) (m 1/2): 5153.708496 Right Ascen at Week(rad): -2.898677659 Argument of Perigee(rad): 2.248476533 Mean Anom(rad): 1.334077925 Af0(s): -0.0003813592041 Af1(s/s): -3.637979e-12 week: 149 ******** Week 149 almanac for PRN-30 ******** ID: 30 Health: 0 Eccentricity: 0.005518913269 Time of Applicability(s): 589824 Orbital Inclination(rad): 0.9359763541 Rate of Right Ascen(r/s): -8.126052768e-09 SQRT(A) (m 1/2): 5153.522949 Right Ascen at Week(rad): 1.234265061 Argument of Perigee(rad): -2.742568898 Mean Anom(rad): -1.648426391 Af0(s): -0.0004062304565 Af1(s/s): -3.637979e-12 week: 149 ******** Week 149 almanac for PRN-31 ******** ID: 31 Health: 0 Eccentricity: 0.01045894623 Time of Applicability(s): 589824 Orbital Inclination(rad): 0.9550252796 Rate of Right Ascen(r/s): -7.920329913e-09 SQRT(A) (m 1/2): 5153.641113 Right Ascen at Week(rad): 1.239311543 Argument of Perigee(rad): 0.376586666 Mean Anom(rad): -2.141020729 Af0(s): -0.0001311393311 Af1(s/s): -3.637979e-12 week: 149 ******** Week 149 almanac for PRN-32 ******** ID: 32 Health: 0 Eccentricity: 0.005593776703 Time of Applicability(s): 589824 Orbital Inclination(rad): 0.9584347915 Rate of Right Ascen(r/s): -7.851755628e-09 SQRT(A) (m 1/2): 5153.72998 Right Ascen at Week(rad): 0.160785979 Argument of Perigee(rad): -2.350192642 Mean Anom(rad): 1.841529331 Af0(s): -5.577189941e-05 Af1(s/s): -7.275958e-12 week: 149